| time (UTC) | temp C | wind direction | speed KPH | gust KPH | rain 1hr cm | rain 24hr cm | rain mn cm | humidity % | barometer mb |
| 20260509020053 | 6 | 140 | 3.2 | 4.8 | 0.00 | 0.15 | 0.15 | 78 | 1011.0 |
| 20260509014544 | 6 | 140 | 3.2 | 6.4 | 0.00 | 0.15 | 0.15 | 76 | 1011.0 |
| 20260509013054 | 6 | 140 | 4.8 | 8.0 | 0.00 | 0.15 | 0.15 | 72 | 1010.9 |
| 20260509011542 | 7 | 140 | 4.8 | 8.0 | 0.00 | 0.15 | 0.15 | 73 | 1010.8 |
| 20260509010051 | 7 | 140 | 4.8 | 8.0 | 0.00 | 0.15 | 0.15 | 73 | 1010.5 |
| 20260509004545 | 7 | 140 | 3.2 | 6.4 | 0.00 | 0.15 | 0.15 | 71 | 1010.4 |
| 20260509003046 | 8 | 140 | 4.8 | 8.0 | 0.00 | 0.15 | 0.15 | 70 | 1010.4 |
| 20260509001543 | 8 | 102 | 3.2 | 6.4 | 0.00 | 0.15 | 0.15 | 70 | 1010.4 |
| 20260509000044 | 9 | 102 | 3.2 | 6.4 | 0.00 | 0.15 | 0.15 | 70 | 1010.3 |
| 20260508234545 | 9 | 360 | 1.6 | 6.4 | 0.00 | 0.15 | 0.15 | 72 | 1010.3 |
| 20260508233046 | 9 | 360 | 3.2 | 8.0 | 0.00 | 0.15 | 0.15 | 72 | 1010.1 |
| 20260508231542 | 8 | 360 | 4.8 | 8.0 | 0.00 | 0.15 | 0.15 | 72 | 1010.2 |
| 20260508230049 | 8 | 360 | 4.8 | 14.5 | 0.00 | 0.15 | 0.15 | 74 | 1010.3 |
| 20260508224546 | 8 | 103 | 4.8 | 11.3 | 0.00 | 0.15 | 0.15 | 76 | 1010.2 |
| 20260508223046 | 8 | 85 | 6.4 | 11.3 | 0.00 | 0.15 | 0.15 | 77 | 1010.2 |
| 20260508221545 | 8 | 82 | 6.4 | 11.3 | 0.00 | 0.15 | 0.15 | 77 | 1010.5 |
| 20260508220049 | 9 | 79 | 4.8 | 9.7 | 0.00 | 0.15 | 0.15 | 74 | 1010.6 |
| 20260508214544 | 10 | 96 | 8.0 | 12.9 | 0.00 | 0.15 | 0.15 | 68 | 1010.5 |
| 20260508213043 | 9 | 88 | 4.8 | 9.7 | 0.00 | 0.15 | 0.15 | 75 | 1010.5 |
| 20260508211546 | 8 | 99 | 4.8 | 14.5 | 0.00 | 0.15 | 0.15 | 76 | 1010.5 |
| 20260508210045 | 7 | 127 | 9.7 | 16.1 | 0.00 | 0.15 | 0.15 | 78 | 1010.7 |
| 20260508204548 | 7 | 86 | 9.7 | 14.5 | 0.00 | 0.15 | 0.15 | 81 | 1010.9 |
| 20260508203045 | 7 | 80 | 9.7 | 14.5 | 0.00 | 0.15 | 0.15 | 80 | 1011.1 |
| 20260508201546 | 7 | 97 | 4.8 | 14.5 | 0.00 | 0.15 | 0.15 | 81 | 1011.2 |
| 20260508200105 | 7 | 84 | 9.7 | 14.5 | 0.00 | 0.15 | 0.15 | 80 | 1011.2 |
| 20260508194545 | 7 | 89 | 11.3 | 14.5 | 0.00 | 0.15 | 0.15 | 80 | 1011.3 |
| 20260508193100 | 7 | 84 | 9.7 | 14.5 | 0.00 | 0.15 | 0.15 | 81 | 1011.6 |
| 20260508191546 | 7 | 88 | 8.0 | 12.9 | 0.00 | 0.15 | 0.15 | 81 | 1011.8 |
| 20260508190052 | 7 | 45 | 6.4 | 12.9 | 0.00 | 0.15 | 0.15 | 83 | 1011.7 |
| 20260508184545 | 6 | 47 | 8.0 | 14.5 | 0.00 | 0.15 | 0.15 | 85 | 1011.7 |
| 20260508183106 | 6 | 27 | 12.9 | 17.7 | 0.00 | 0.15 | 0.15 | 83 | 1011.7 |
| 20260508181600 | 7 | 24 | 12.9 | 16.1 | 0.00 | 0.15 | 0.15 | 83 | 1011.9 |
| 20260508180045 | 7 | 360 | 11.3 | 16.1 | 0.00 | 0.15 | 0.15 | 83 | 1011.9 |
| 20260508174551 | 7 | 19 | 12.9 | 16.1 | 0.00 | 0.15 | 0.15 | 83 | 1011.9 |
| 20260508173046 | 7 | 360 | 8.0 | 12.9 | 0.00 | 0.15 | 0.15 | 84 | 1012.1 |
| 20260508171547 | 7 | 360 | 6.4 | 14.5 | 0.00 | 0.15 | 0.15 | 83 | 1012.2 |
| 20260508170052 | 7 | 351 | 11.3 | 14.5 | 0.00 | 0.15 | 0.15 | 83 | 1012.3 |
| 20260508164547 | 7 | 327 | 8.0 | 14.5 | 0.00 | 0.15 | 0.15 | 83 | 1012.5 |
| 20260508163039 | 7 | 333 | 11.3 | 16.1 | 0.00 | 0.15 | 0.15 | 84 | 1012.7 |
| 20260508161547 | 7 | 340 | 11.3 | 17.7 | 0.00 | 0.15 | 0.15 | 83 | 1012.8 |
| 20260508160045 | 7 | 336 | 14.5 | 17.7 | 0.00 | 0.15 | 0.15 | 83 | 1012.8 |
| 20260508154605 | 7 | 332 | 17.7 | 22.5 | 0.00 | 0.15 | 0.15 | 83 | 1012.8 |
| 20260508153047 | 7 | 337 | 16.1 | 20.9 | 0.00 | 0.15 | 0.15 | 83 | 1012.7 |
| 20260508151548 | 7 | 325 | 14.5 | 17.7 | 0.00 | 0.15 | 0.15 | 81 | 1012.7 |
| 20260508150050 | 8 | 328 | 9.7 | 16.1 | 0.00 | 0.15 | 0.15 | 79 | 1012.5 |
| 20260508144557 | 7 | 265 | 8.0 | 14.5 | 0.00 | 0.15 | 0.15 | 79 | 1012.5 |
| 20260508143045 | 7 | 281 | 8.0 | 12.9 | 0.00 | 0.15 | 0.15 | 80 | 1012.4 |
| 20260508141541 | 7 | 277 | 9.7 | 16.1 | 0.03 | 0.15 | 0.15 | 83 | 1012.5 |
| 20260508140046 | 6 | 308 | 9.7 | 20.9 | 0.03 | 0.15 | 0.15 | 85 | 1012.5 |
| 20260508134558 | 6 | 265 | 9.7 | 17.7 | 0.08 | 0.15 | 0.15 | 88 | 1012.5 |
| 20260508133051 | 6 | 204 | 3.2 | 9.7 | 0.08 | 0.15 | 0.15 | 90 | 1012.5 |
| 20260508131547 | 5 | 221 | 4.8 | 16.1 | 0.05 | 0.13 | 0.13 | 87 | 1012.3 |
| 20260508130043 | 6 | 360 | 8.0 | 14.5 | 0.05 | 0.13 | 0.13 | 90 | 1012.5 |
| 20260508124545 | 6 | 360 | 4.8 | 9.7 | 0.00 | 0.08 | 0.08 | 89 | 1012.4 |
| 20260508123050 | 6 | 258 | 4.8 | 9.7 | 0.00 | 0.08 | 0.08 | 90 | 1012.2 |
| 20260508121547 | 6 | 360 | 4.8 | 11.3 | 0.00 | 0.08 | 0.08 | 90 | 1012.1 |
| 20260508120046 | 5 | 236 | 4.8 | 9.7 | 0.00 | 0.08 | 0.08 | 91 | 1012.0 |
| 20260508114545 | 5 | 202 | 3.2 | 9.7 | 0.00 | 0.08 | 0.08 | 91 | 1011.6 |
| 20260508113045 | 5 | 202 | 1.6 | 6.4 | 0.00 | 0.08 | 0.08 | 91 | 1011.4 |
| 20260508111546 | 5 | 202 | 4.8 | 6.4 | 0.00 | 0.08 | 0.08 | 92 | 1011.5 |
| 20260508110044 | 4 | 202 | 3.2 | 8.0 | 0.00 | 0.08 | 0.08 | 92 | 1011.2 |
| 20260508104545 | 4 | 202 | 3.2 | 6.4 | 0.00 | 0.08 | 0.08 | 92 | 1011.2 |
| 20260508103045 | 4 | 360 | 4.8 | 9.7 | 0.00 | 0.08 | 0.08 | 92 | 1011.4 |
| 20260508101541 | 4 | 213 | 6.4 | 9.7 | 0.00 | 0.08 | 0.08 | 92 | 1011.5 |
| 20260508100056 | 4 | 213 | 6.4 | 12.9 | 0.00 | 0.08 | 0.08 | 92 | 1011.6 |
| 20260508094549 | 4 | 209 | 8.0 | 14.5 | 0.00 | 0.08 | 0.08 | 92 | 1011.6 |
| 20260508093045 | 3 | 207 | 8.0 | 11.3 | 0.00 | 0.08 | 0.08 | 92 | 1011.6 |
| 20260508091547 | 3 | 202 | 6.4 | 11.3 | 0.00 | 0.08 | 0.08 | 92 | 1011.7 |
| 20260508090103 | 3 | 229 | 6.4 | 9.7 | 0.00 | 0.08 | 0.08 | 92 | 1011.7 |
| 20260508084547 | 3 | 208 | 6.4 | 9.7 | 0.00 | 0.08 | 0.08 | 92 | 1011.4 |
| 20260508083044 | 3 | 210 | 6.4 | 9.7 | 0.00 | 0.08 | 0.08 | 92 | 1011.4 |
| 20260508081559 | 4 | 205 | 4.8 | 8.0 | 0.00 | 0.08 | 0.08 | 91 | 1011.3 |
| 20260508080056 | 4 | 207 | 4.8 | 8.0 | 0.00 | 0.08 | 0.08 | 91 | 1011.3 |
| 20260508074548 | 5 | 191 | 6.4 | 12.9 | 0.00 | 0.08 | 0.08 | 91 | 1011.3 |
| 20260508073103 | 5 | 230 | 4.8 | 9.7 | 0.00 | 0.08 | 0.08 | 91 | 1011.4 |
| 20260508071544 | 5 | 360 | 4.8 | 9.7 | 0.00 | 0.08 | 0.08 | 90 | 1011.4 |
| 20260508070048 | 5 | 203 | 6.4 | 12.9 | 0.00 | 0.08 | 0.08 | 90 | 1011.5 |
| 20260508064547 | 5 | 360 | 4.8 | 12.9 | 0.00 | 0.08 | 0.08 | 90 | 1011.5 |
| 20260508063050 | 5 | 360 | 6.4 | 9.7 | 0.03 | 0.08 | 0.08 | 89 | 1011.5 |
| 20260508061549 | 5 | 360 | 8.0 | 14.5 | 0.03 | 0.08 | 0.08 | 88 | 1011.7 |
| 20260508060100 | 5 | 232 | 8.0 | 12.9 | 0.03 | 0.08 | 0.08 | 88 | 1011.6 |
| 20260508054546 | 6 | 257 | 6.4 | 19.3 | 0.03 | 0.08 | 0.08 | 87 | 1011.6 |
| 20260508053046 | 6 | 261 | 11.3 | 17.7 | 0.03 | 0.05 | 0.05 | 88 | 1011.7 |
| 20260508051602 | 6 | 248 | 12.9 | 17.7 | 0.03 | 0.05 | 0.05 | 88 | 1011.8 |
| 20260508050052 | 6 | 232 | 6.4 | 12.9 | 0.05 | 0.05 | 0.05 | 87 | 1011.7 |
| 20260508044550 | 6 | 223 | 8.0 | 12.9 | 0.05 | 0.05 | 0.05 | 86 | 1011.6 |
| 20260508043044 | 6 | 240 | 6.4 | 12.9 | 0.03 | 0.03 | 0.03 | 84 | 1011.6 |
| 20260508041547 | 6 | 240 | 14.5 | 25.7 | 0.03 | 0.03 | 0.03 | 83 | 1011.6 |
| 20260508040053 | 7 | 273 | 14.5 | 20.9 | 0.00 | 0.00 | 0.00 | 84 | 1011.5 |
| 20260508034551 | 6 | 279 | 9.7 | 19.3 | 0.00 | 0.00 | 0.00 | 83 | 1011.3 |
| 20260508033056 | 6 | 327 | 22.5 | 32.2 | 0.00 | 0.00 | 0.00 | 84 | 1011.2 |
| 20260508031554 | 7 | 360 | 25.7 | 37.0 | 0.00 | 0.00 | 0.00 | 84 | 1011.1 |
| 20260508030050 | 7 | 288 | 25.7 | 35.4 | 0.00 | 0.00 | 0.00 | 85 | 1011.2 |
| 20260508024610 | 6 | 300 | 16.1 | 24.1 | 0.00 | 0.00 | 0.00 | 82 | 1011.1 |
| 20260508023041 | 7 | 360 | 19.3 | 29.0 | 0.00 | 0.00 | 0.00 | 78 | 1011.1 |
| 20260508021549 | 7 | 302 | 14.5 | 17.7 | 0.00 | 0.00 | 0.00 | 78 | 1011.1 |